084  
NZUS01 KOTX 150810  
RWROTX  
 
EASTERN WASHINGTON/NORTHERN IDAHO ROUNDUP  
NATIONAL WEATHER SERVICE, SPOKANE WA  
100 AM PDT SUN SEP 15 2019  
 
NOTE: "FAIR" INDICATED FEW OR NO CLOUDS BELOW 12,000 FEET WITH NO  
SIGNIFICANT WEATHER AND/OR S TO VISIBILITY
.  
   
..NORTHEAST WASHINGTON AND NORTHERN IDAHO PANHANDLE
 
 
 
CITY SKY/WX TMP DP RH WIND PRES REMARKS
 
SPOKANE INTL PTCLDY 57 43 59 SE5 29.83F  
SPOKANE DOWNTO MOCLDY 55 47 74 CALM 29.83F  
COEUR D ALENE PTCLDY 53 47 79 CALM 29.85S  
DEER PARK CLOUDY 52 48 86 CALM 29.84S  
BONNERS FERRY PTSUNNY 52 50 93 CALM 29.87S  
   
..SOUTHEAST WASHINGTON AND SOUTHERN IDAHO PANHANDLE
 
 
 
CITY SKY/WX TMP DP RH WIND PRES REMARKS
 
WALLA WALLA CLEAR 64 48 56 SE7 29.80S  
PULLMAN/MOSCOW PTCLDY 53 43 68 CALM 29.86S  
LEWISTON PTCLDY 61 45 55 CALM 29.80S  
LOWELL N/A 55 53 93 CALM 29.86S  
GRANGEVILLE FAIR 52 45 76 CALM 29.88S  
   
..COLUMBIA BASIN
 
 
 
CITY SKY/WX TMP DP RH WIND PRES REMARKS
 
EPHRATA CLOUDY 62 42 47 NW6 29.75F  
MOSES LAKE CLOUDY 63 51 65 E3 29.76F  
PASCO PTCLDY 59 53 80 E6 29.76F  
RICHLAND MOSUNNY 59 51 75 CALM 29.76S  
HERMISTON CLEAR 65 48 54 SW7 29.77F  
PENDLETON CLEAR 54 47 77 E5 29.80F  
   
..EAST SLOPES CASCADES
 
 
 
CITY SKY/WX TMP DP RH WIND PRES REMARKS
 
THE DALLES PTCLDY 66 52 60 W12 29.79S  
YAKIMA MOCLDY 58 48 69 W5 29.77F  
ELLENSBURG CLOUDY 57 47 69 N3 29.79F  
WENATCHEE CLOUDY 63 45 51 NW9 29.76F  
WINTHROP FAIR 56 49 79 CALM 29.78S  
OMAK CLOUDY 61 45 55 SW6 29.76F  
SUNNYSIDE MOSUNNY 53 49 86 CALM 29.77S  
   
..SOUTHERN BRITISH COLUMBIA
 
 
 
CITY SKY/WX TMP DP RH WIND PRES REMARKS
 
PENTICTON CLOUDY 66 46 48 SE7G17 29.73F  
CRANBROOK LGT RAIN 52 46 82 S7 29.88S  
OSOYOOS N/A 66 46 48 S8 N/A  
   
..WESTERN MONTANA
 
 
 
CITY SKY/WX TMP DP RH WIND PRES REMARKS
 
KALISPELL MOSUNNY 46 44 93 CALM 29.87F  
MISSOULA CLEAR 53 44 71 N3 29.89S  
   
..NEIGHBORING CITIES
 
 
 
CITY SKY/WX TMP DP RH WIND PRES REMARKS
 
SEATTLE LGT RAIN 61 57 87 SE13 29.78F  
PORTLAND MOCLDY 65 53 65 SE6 29.84F  
BOISE CLEAR 69 38 32 SE14 29.83S  
GREAT FALLS CLEAR 61 43 51 S12 29.86F  
CALGARY MOCLDY 57 39 51 SW3 29.71S  
 
CLICK HERE TO GO TO PREVIOUS BULLETINS.

The Nexlab WA Page
The Nexlab ID Page Main Text Page